Home > Weather > Norfolk > Past weeks

Flag for U.S.A. Weather for the Past 2 Weeks in Norfolk, Virginia, U.S.A.

Now
17 °F

Scattered clouds.


Feels Like: 2 °F
Forecast: 17 / 26 °F
Wind: 15 mph from North

Location: Norfolk Naval Air Station

Current Time: Feb 14, 2016 at 7:44:16 AM

Latest Report: Feb 14, 2016 at 6:59 AM


Visibility: 10 mi

Pressure: 30.56 "Hg

Humidity: 45%

Dew point: -1 °F

Location of NorfolkLocation

Historic Weather in Norfolk — Graph

°F

Norfolk Temperature Yesterday

Maximum temperature yesterday: 33 °F (at 2:59 PM)
Minimum temperature yesterday: 20 °F (at 11:59 PM)
Average temperature yesterday: 28 °F

High & Low Weather Summary for the Past Weeks

 TemperatureHumidityPressure
High76 °F (Feb 3, 11:59 AM)94% (Feb 4, 1:59 AM)30.54 "Hg (Feb 4, 1:59 AM)
Low17 °F (Feb 14, 5:59 AM)22% (Feb 13, 3:59 PM)29.55 "Hg (Feb 9, 3:59 AM)
Average43 °F61%30.06 "Hg
* Reported Jan 30 5:59 AM — Feb 14 5:59 AM, Norfolk, Weather by CustomWeather, © 2016

Note: Actual official high and low records may vary slightly from our data, if they occured in-between our weather recording intervals... More about our weather records

Advertising

Norfolk Weather History for the Previous 24 Hours

 ConditionsComfort  
Time TempWeatherWind HumidityBarometerVisibility
5:59 AM
Sun, Feb 14
17 °FPassing clouds.20 mph41%30.54 "Hg10 mi
4:59 AM18 °FPassing clouds.16 mph41%30.52 "Hg10 mi
3:59 AM18 °FPassing clouds.25 mph39%30.49 "Hg10 mi
2:59 AM19 °FPassing clouds.21 mph38%30.47 "Hg10 mi
1:59 AM19 °FPassing clouds.18 mph39%30.47 "Hg10 mi
12:59 AM20 °FPassing clouds.23 mph38%30.47 "Hg10 mi
11:59 PM
Sat, Feb 13
20 °FPassing clouds.15 mph36%30.46 "Hg10 mi
10:59 PM21 °FClear.17 mph36%30.45 "Hg10 mi
9:59 PM22 °FPassing clouds.21 mph33%30.44 "Hg10 mi
8:59 PM24 °FClear.17 mph33%30.42 "Hg10 mi
7:59 PM25 °FClear.17 mph33%30.38 "Hg10 mi
6:59 PM28 °FClear.20 mph27%30.35 "Hg10 mi
5:59 PM29 °FPassing clouds.21 mph25%30.32 "Hg10 mi
4:59 PM30 °FScattered clouds.18 mph26%30.28 "Hg10 mi
3:59 PM32 °FScattered clouds.25 mph22%30.26 "Hg10 mi
2:59 PM33 °FScattered clouds.21 mph25%30.24 "Hg10 mi
1:59 PM32 °FScattered clouds.24 mph25%30.24 "Hg10 mi
12:59 PM32 °FPassing clouds.23 mph26%30.24 "Hg10 mi
11:59 AM32 °FScattered clouds.17 mph30%30.26 "Hg10 mi
10:59 AM30 °FScattered clouds.18 mph33%30.26 "Hg10 mi
9:59 AM29 °FPassing clouds.23 mph39%30.24 "Hg10 mi
8:59 AM28 °FScattered clouds.28 mph45%30.22 "Hg10 mi
7:59 AM27 °FScattered clouds.18 mph55%30.20 "Hg10 mi
Weather by CustomWeather, © 2016

See weather overviewHow to use our weather pages